THOR ABLESTAR DEB, 530

Orbit data source: Space-Track

THOR ABLESTAR DEB, 530 is space debris in LEO originally from a launch on Thu, 29 Jun 1961 UTC launched from the Air Force Eastern Test Range (AFETR). Debris objects in space refer to the collection of defunct objects orbiting the Earth. Examples of debris include non-operational satellites, rocket bodies, and fragments generated from explosions, collisions, or faulty payload assembly.

Loading next visibility...
Identifier
530, 1961-015FU
Orbit
LEO
Last TLE update
7 hours ago
Origin
Manufacturer
Unknown
Mission
Spacecraft
Bus & Motor
Unknown
Mass
Unknown
Launch date (UTC)
1961-06-29 (64 years ago)
Launch vehicle
Unknown
Launch site
Air Force Eastern Test Range (AFETR)
Object type
Payload
Rocket body
Debris
Shape & HBR
Unknown
Radar Cross Section
Small (<0.1 m²)

Expand to show TLE details & history

TLE from 7 hours ago
0 THOR ABLESTAR DEB
1 00530U 61015FU  25182.91360051  .00000110  00000-0  12633-3 0  9994
2 00530  66.8796 112.0222 0073103  59.5381 301.2896 13.99259981258614
Epoch: 2025-07-01T21:55Z
TLE epoch observation values (Epoch: 2025-07-01T21:55:35.084Z)
Latitude
-0.00007°
Longitude
-137.07624°
Altitude
871.113 km
Speed
7.431 km/s
True Right ascension
07h 28m 05s
True Declination
0° 00' 00"
Sunlit
Object was in daylight at epoch
Visualization orbit readout
Latitude
55.43043°
Longitude
-99.76311°
Altitude
851.671 km
Speed
7.46 km/s
Apparent Right ascension
07h 05m 53s
Apparent Declination
14° 48' 10"
Sunlit
Object is in daylight
Visualization observer readout
Local Sidereal Time
16:46:40
Azimuth
321.961° NNW
Elevation
-26.419°
Doppler factor
1
Orbital elements
Apogee altitude
947.903 km
Perigee altitude
841.57 km
Semi-major axis
7,272.874 km
Eccentricity
0.00731
Inclination
66.8796°
RAAN
112.0222°
Arg. of periapsis
59.5381°
True anomaly
Unknown
Mean anomaly
301.2896°
Eccentric anomaly
Unknown
Mean motion
3.49932 °/min
Orbital period
102.88 mins
BSTAR
0.00012633
Loading maneuver chart data...
Loading SW <> Apogee altitude chart data...

THOR ABLESTAR DEB Visibility forecast

Observer location: undefined°, undefined°

Span
Click to sort rows by Start time (UTC) header in descending order
Start Az.
Max El. time (UTC)
Max El. Az.
Max El.
End time (UTC)
End Az.
10 mins2025-07-02 05:19:09.605Z348.732° N2025-07-02 05:24:09.605Z56.473° ENE30.251°2025-07-02 05:29:09.605Z117.496° SE
8 mins2025-07-02 07:06:09.605Z304.42° NW2025-07-02 07:10:09.605Z239.603° WSW30.26°2025-07-02 07:14:09.605Z189.569° SSW
9 mins2025-07-02 20:21:09.605Z181.468° SSW2025-07-02 20:25:09.605Z118.781° SE37.018°2025-07-02 20:30:09.605Z41.458° NE
7 mins2025-07-02 22:08:09.605Z266.525° W2025-07-02 22:11:09.605Z308.568° NW23.935°2025-07-02 22:15:09.605Z1.888° NNE
|